IRIS

Last updated on Thu Oct 30 2025 00:03:36 GMT+0000 (Coordinated Universal Time)

1 39197U 13033A 25302.53570301 .00002055 00000+0 24605-3 0 9996 2 39197 97.9437 137.4500 0024802 356.4198 3.6835 14.85031234666130
UTC large
Height (km)
Speed (km/s)
/
Latitude / Longitude
Inclination (degrees)
Orbital Period (minutes)
Azimuth
Elevation
Range (km)
Doppler Factor

Next 0 passes for location: London (51.5072 / 0.1276)

Sorry there are no passes over London.